User: anonymous   Login
Location: Aniagüita
(10.0946°N, 66.9708°W)
Time: 20:44:33
(UTC+00:00)
Language:

ARIANE 5 R/B - Orbit

View from above orbital plane
View from above orbital plane
View from above satellite
View from above satellite

Ground track
Ground track

The orbit data is extracted from the following two-line orbital elements,

1 28904U 05046C   22274.47297514  .00000145  00000-0  47551-3 0  9999
2 28904   7.3048 293.8379 7197313 339.7858   2.3278  2.29234851141141
Epoch (UTC): 01 October 2022 11:21:05
Eccentricity: 0.7197313
inclination: 7.3048°
perigee height: 431 km
apogee height: 35405 km
right ascension of ascending node: 293.8379°
argument of perigee: 339.7858°
revolutions per day: 2.29234851
mean anomaly at epoch: 2.3278°
orbit number at epoch: 14114

The dashed part of the orbit path shows where the satellite is in the earth's shadow,  

DLR